Regional Weather Roundup
Issued by NWS Green Bay, WI

Home | Current Version | Previous Version | Text Only | Print | Product List | Glossary On
Versions: 1 2 3 4 5 6 7 8 9 10 11 12 13 14 15 16 17 18 19 20 21 22 23 24 25 26 27 28 29 30 31 32 33 34 35 36 37 38 39 40 41 42 43 44 45 46 47 48 49 50
000
ASUS43 KGRB 252259
RWRGRB

NORTH-CENTRAL AND NORTHEAST WISCONSIN REGIONAL WEATHER ROUNDUP
NATIONAL WEATHER SERVICE GREEN BAY WI
500 PM CST THU DEC 25 2014

WIZ005-009-010>012-018-019-260000-
NORTH CENTRAL WISCONSIN

CITY           SKY/WX    TMP DP  RH WIND       PRES   REMARKS
IRONWOOD       CLOUDY    30  28  93 W6        29.78R
MANITOWISH WTR NOT AVBL
ARBOR VITAE    NOT AVBL
EAGLE RIVER    NOT AVBL
LAND O LAKES   NOT AVBL
RHINELANDER    LGT SNOW  29  27  92 SW9       29.81R FOG
PHILLIPS       FLURRIES  30  28  92 CALM      29.79R
ANTIGO         NOT AVBL
TOMAHAWK       NOT AVBL
MERRILL        NOT AVBL
$$

WIZ013-073-260000-
NORTHEAST WISCONSIN

CITY           SKY/WX    TMP DP  RH WIND       PRES   REMARKS
IRON MOUNTAIN  CLOUDY    33  28  81 SW5       29.82R
MARINETTE      CLOUDY    34  28  80 SW7       29.87R
$$

WIZ017-030-035>037-045-260000-
CENTRAL WISCONSIN

CITY           SKY/WX    TMP DP  RH WIND       PRES   REMARKS
MEDFORD        NOT AVBL
WAUSAU         CLOUDY    32  27  81 S5        29.82S
MOSINEE        MOCLDY    32  30  93 S5        29.84S
MARSHFIELD     MOCLDY    32  27  81 SE5       29.81F
WISC RAPIDS    MOCLDY    32  27  81 SE5       29.85S
STEVENS POINT  NOT AVBL
WAUPACA        NOT AVBL
SHAWANO        CLOUDY    36  30  78 CALM      29.87R
CLINTONVILLE   CLOUDY    34  30  86 S3        29.87R
$$

WIZ038-039-048-051-260000-
FOX VALLEY

CITY           SKY/WX    TMP DP  RH WIND       PRES   REMARKS
NWS GREEN BAY  CLOUDY    35  30  82 S5        29.89R
APPLETON       MOCLDY    34  30  86 VRB5      29.88R
OSHKOSH        CLOUDY    35  30  82 CALM      29.88R
FOND DU LAC    CLOUDY    34  29  82 S6        29.88S
$$

WIZ022-050-052-260000-
EAST CENTRAL WISCONSIN

CITY           SKY/WX    TMP DP  RH WIND       PRES   REMARKS
STURGEON BAY   CLOUDY    34  28  80 SW12      29.90R
MANITOWOC      NOT AVBL
SHEBOYGAN      MOCLDY    36  29  75 S9        29.91R
$$

LMZ563-521-522-541>543-260000-
LAKESHORE

STATION/POSITION TIME  TEMP    WIND        PRES    VSBY  WAVE
                       AIR SEA DIR/SP/G                  HT/PER
                 (UTC) (F)     (DEG/KT/KT) (MB)    (MI)  (FT/S)
SHEBOYGAN LKSHOR 2200   40 37  200/ 11/ 12 1013.2R
KEWAUNEE LKSHORE 2200   36     220/  6/ 10 1011.5R
ALGOMA MARINA    2200          250/ 14/ 16   N/A
TWO RIVERS CG    2200   36                 1012.4R     6   3
NORTHPORT PIER   2200   35     220/  7/ 11 1010.8R
SISTER BAY LKSHO 2200          240/ 17/ 20   N/A
STURGEON BAY CG  2200   35 34  210/  9     1002.3   1 1/4
CHAMBERS ISLAND  2200   35     200/  8/ 14 1011.5R
MENOMINEE LKSHOR 2200   35     210/  9/ 12 1012.1R
$$


USA.gov is the U.S. government's official web portal to all federal, state and local government web resources and services.